CEB637 RPLL-RPVP

Flight info

Callsign CEB637
Flight time 0h 58m
Altitude 34000
Route HARBO1 HARBO DCT BUCAL M646 NOMYO NOMYO2W
Aircraft A321/M-SDE3FGHIRWY/LB1

Departure

Time 2026-04-23 02:23
Airport Ninoy Aquino International Airport (RPLL)

Arrival

Time 2026-04-23 03:21
Airport Puerto Princesa International Airport / PAF Antonio Bautista Air Base (RPVP)
Time Latitude Longitude Altitude Speed Heading
2026-04-23 02:18 14.51303 121.01644 84 ft 13 kts 135°
2026-04-23 02:18 14.51242 121.01707 84 ft 13 kts 135°
2026-04-23 02:19 14.51209 121.01741 84 ft 13 kts 135°
2026-04-23 02:19 14.51194 121.01756 84 ft 12 kts 135°
2026-04-23 02:19 14.51145 121.01807 84 ft 10 kts 135°
2026-04-23 02:19 14.51106 121.01848 84 ft 5 kts 135°
2026-04-23 02:20 14.51074 121.01860 84 ft 4 kts 186°
2026-04-23 02:20 14.51043 121.01842 84 ft 5 kts 223°
2026-04-23 02:20 14.51026 121.01811 84 ft 0 kts 253°
2026-04-23 02:20 14.51026 121.01809 84 ft 1 kts 256°
2026-04-23 02:21 14.51029 121.01792 84 ft 3 kts 297°
2026-04-23 02:21 14.51043 121.01769 84 ft 3 kts 305°
2026-04-23 02:21 14.51050 121.01760 84 ft 0 kts 315°
2026-04-23 02:22 14.51052 121.01759 84 ft 3 kts 315°
2026-04-23 02:23 14.51266 121.01539 84 ft 85 kts 315°
2026-04-23 02:23 14.51862 121.00925 90 ft 152 kts 317°
2026-04-23 02:23 14.52594 121.00157 724 ft 149 kts 314°
2026-04-23 02:23 14.53309 120.99382 1290 ft 156 kts 312°
2026-04-23 02:24 14.54078 120.98585 1860 ft 155 kts 315°
2026-04-23 02:24 14.54864 120.97787 2109 ft 162 kts 313°
2026-04-23 02:24 14.55686 120.96948 2284 ft 176 kts 313°
2026-04-23 02:24 14.56505 120.96095 2498 ft 188 kts 313°
2026-04-23 02:25 14.57524 120.95046 2787 ft 202 kts 313°
2026-04-23 02:25 14.58546 120.93985 3063 ft 216 kts 311°
2026-04-23 02:25 14.59322 120.92636 3311 ft 226 kts 279°
2026-04-23 02:25 14.59100 120.91009 3494 ft 239 kts 237°
2026-04-23 02:26 14.57857 120.89840 3800 ft 250 kts 202°
2026-04-23 02:26 14.56148 120.89308 4165 ft 263 kts 192°
2026-04-23 02:26 14.54339 120.88895 4770 ft 267 kts 194°
2026-04-23 02:26 14.52538 120.88442 5424 ft 269 kts 195°
2026-04-23 02:27 14.50740 120.87939 6044 ft 273 kts 197°
2026-04-23 02:27 14.48921 120.87387 6699 ft 275 kts 197°
2026-04-23 02:27 14.47100 120.86820 7345 ft 277 kts 198°
2026-04-23 02:27 14.45217 120.86217 7960 ft 280 kts 199°
2026-04-23 02:28 14.43345 120.85612 8581 ft 283 kts 199°
2026-04-23 02:28 14.41460 120.84997 9196 ft 285 kts 199°
2026-04-23 02:28 14.39570 120.84378 9764 ft 289 kts 199°
2026-04-23 02:28 14.37711 120.83768 10267 ft 295 kts 200°
2026-04-23 02:29 14.35655 120.83089 10562 ft 309 kts 200°
2026-04-23 02:29 14.33569 120.82399 10820 ft 324 kts 200°
2026-04-23 02:29 14.31417 120.81690 11145 ft 335 kts 199°
2026-04-23 02:29 14.29238 120.80973 11651 ft 339 kts 200°
2026-04-23 02:30 14.27172 120.80293 12137 ft 342 kts 200°
2026-04-23 02:30 14.24848 120.79529 12675 ft 346 kts 199°
2026-04-23 02:30 14.22550 120.78772 13231 ft 348 kts 199°
2026-04-23 02:30 14.20240 120.78011 13770 ft 351 kts 199°
2026-04-23 02:31 14.17911 120.77245 14287 ft 354 kts 199°
2026-04-23 02:31 14.15524 120.76459 14808 ft 358 kts 199°
2026-04-23 02:31 14.13177 120.75687 15312 ft 361 kts 199°
2026-04-23 02:31 14.10764 120.74894 15820 ft 364 kts 199°
2026-04-23 02:32 14.08374 120.74108 16313 ft 367 kts 199°
2026-04-23 02:32 14.05921 120.73302 16810 ft 370 kts 199°
2026-04-23 02:32 14.03475 120.72498 17294 ft 373 kts 199°
2026-04-23 02:32 14.00992 120.71682 17777 ft 376 kts 199°
2026-04-23 02:33 13.98504 120.70865 18252 ft 378 kts 199°
2026-04-23 02:33 13.96002 120.70043 18717 ft 381 kts 199°
2026-04-23 02:33 13.93467 120.69210 19180 ft 384 kts 199°
2026-04-23 02:33 13.90950 120.68384 19638 ft 387 kts 198°
2026-04-23 02:34 13.88374 120.67539 20097 ft 389 kts 198°
2026-04-23 02:34 13.85799 120.66694 20547 ft 392 kts 198°
2026-04-23 02:34 13.83189 120.65837 20997 ft 395 kts 198°
2026-04-23 02:34 13.80574 120.64980 21439 ft 397 kts 198°
2026-04-23 02:35 13.77936 120.64114 21871 ft 400 kts 198°
2026-04-23 02:35 13.75310 120.63253 22298 ft 402 kts 198°
2026-04-23 02:35 13.72638 120.62376 22716 ft 405 kts 198°
2026-04-23 02:35 13.69972 120.61502 23123 ft 407 kts 198°
2026-04-23 02:36 13.67258 120.60613 23531 ft 410 kts 198°
2026-04-23 02:36 13.64563 120.59730 23930 ft 412 kts 198°
2026-04-23 02:36 13.61839 120.58823 24318 ft 414 kts 199°
2026-04-23 02:36 13.59117 120.57769 24709 ft 416 kts 203°
2026-04-23 02:37 13.56509 120.56576 25076 ft 418 kts 205°
2026-04-23 02:37 13.53863 120.55302 25449 ft 420 kts 205°
2026-04-23 02:37 13.51207 120.54014 25818 ft 422 kts 205°
2026-04-23 02:37 13.48555 120.52730 26171 ft 424 kts 205°
2026-04-23 02:38 13.45899 120.51447 26512 ft 427 kts 205°
2026-04-23 02:38 13.43191 120.50142 26854 ft 429 kts 205°
2026-04-23 02:38 13.40509 120.48850 27183 ft 431 kts 205°
2026-04-23 02:38 13.37816 120.47554 27507 ft 432 kts 205°
2026-04-23 02:39 13.35062 120.46230 27831 ft 434 kts 205°
2026-04-23 02:39 13.32359 120.44931 28140 ft 436 kts 205°
2026-04-23 02:39 13.29610 120.43611 28443 ft 438 kts 205°
2026-04-23 02:39 13.26850 120.42287 28740 ft 440 kts 205°
2026-04-23 02:40 13.24070 120.40952 29033 ft 441 kts 205°
2026-04-23 02:40 13.21313 120.39629 29319 ft 443 kts 205°
2026-04-23 02:40 13.18536 120.38297 29598 ft 445 kts 205°
2026-04-23 02:40 13.15808 120.36988 29867 ft 446 kts 205°
2026-04-23 02:41 13.12934 120.35609 30137 ft 448 kts 205°
2026-04-23 02:41 13.10100 120.34250 30452 ft 448 kts 205°
2026-04-23 02:41 13.07270 120.32895 30788 ft 447 kts 205°
2026-04-23 02:41 13.04431 120.31538 31086 ft 448 kts 205°
2026-04-23 02:42 13.01604 120.30187 31382 ft 448 kts 206°
2026-04-23 02:42 12.98773 120.28834 31714 ft 447 kts 206°
2026-04-23 02:42 12.95936 120.27477 32092 ft 445 kts 207°
2026-04-23 02:42 12.93155 120.26144 32460 ft 443 kts 207°
2026-04-23 02:43 12.90351 120.24798 32729 ft 444 kts 207°
2026-04-23 02:43 12.87520 120.23438 32940 ft 445 kts 207°
2026-04-23 02:43 12.84621 120.22047 33156 ft 447 kts 207°
2026-04-23 02:43 12.81633 120.20616 33384 ft 448 kts 207°
2026-04-23 02:44 12.78703 120.19213 33604 ft 449 kts 207°
2026-04-23 02:44 12.75808 120.17828 33822 ft 449 kts 207°
2026-04-23 02:44 12.72939 120.16456 33941 ft 451 kts 207°
2026-04-23 02:45 12.67236 120.13731 33949 ft 452 kts 207°
2026-04-23 02:45 12.61494 120.10987 33951 ft 452 kts 207°
2026-04-23 02:46 12.55784 120.08260 33951 ft 451 kts 207°
2026-04-23 02:46 12.50103 120.05550 33951 ft 452 kts 207°
2026-04-23 02:47 12.44391 120.02825 33951 ft 452 kts 207°
2026-04-23 02:47 12.38668 120.00095 33951 ft 452 kts 207°
2026-04-23 02:48 12.32977 119.97384 33951 ft 452 kts 207°
2026-04-23 02:48 12.27262 119.94661 33951 ft 451 kts 207°
2026-04-23 02:49 12.21608 119.91969 33951 ft 451 kts 207°
2026-04-23 02:49 12.15936 119.89269 33951 ft 451 kts 207°
2026-04-23 02:50 12.10318 119.86597 33951 ft 451 kts 207°
2026-04-23 02:50 12.04567 119.83863 33951 ft 451 kts 207°
2026-04-23 02:51 11.98872 119.81156 33951 ft 451 kts 207°
2026-04-23 02:51 11.93159 119.78442 33951 ft 451 kts 207°
2026-04-23 02:52 11.87475 119.75744 33950 ft 451 kts 207°
2026-04-23 02:52 11.81774 119.73038 33951 ft 451 kts 207°
2026-04-23 02:53 11.76098 119.70343 33951 ft 451 kts 207°
2026-04-23 02:53 11.70338 119.67612 33951 ft 451 kts 207°
2026-04-23 02:54 11.64636 119.64954 33951 ft 451 kts 206°
2026-04-23 02:54 11.58907 119.62302 33951 ft 451 kts 206°
2026-04-23 02:55 11.53209 119.59662 33951 ft 451 kts 206°
2026-04-23 02:55 11.47508 119.57019 33951 ft 451 kts 206°
2026-04-23 02:56 11.41792 119.54369 33951 ft 451 kts 206°
2026-04-23 02:56 11.39152 119.53145 33951 ft 451 kts 206°
2026-04-23 02:57 11.33446 119.50500 33951 ft 451 kts 206°
2026-04-23 02:57 11.27735 119.47855 33593 ft 452 kts 206°
2026-04-23 02:57 11.24883 119.46534 32661 ft 460 kts 206°
2026-04-23 02:58 11.21949 119.45175 31731 ft 465 kts 206°
2026-04-23 02:58 11.19006 119.43813 30948 ft 466 kts 206°
2026-04-23 02:58 11.16050 119.42445 30195 ft 465 kts 206°
2026-04-23 02:58 11.13097 119.41079 29448 ft 464 kts 206°
2026-04-23 02:59 11.10180 119.39731 28906 ft 458 kts 206°
2026-04-23 02:59 11.07280 119.38390 28362 ft 453 kts 206°
2026-04-23 02:59 11.04420 119.37068 27778 ft 448 kts 206°
2026-04-23 02:59 11.01584 119.35757 27177 ft 444 kts 206°
2026-04-23 03:00 10.98749 119.34445 26529 ft 442 kts 206°
2026-04-23 03:00 10.95971 119.33160 25881 ft 439 kts 206°
2026-04-23 03:00 10.93141 119.31852 25235 ft 437 kts 205°
2026-04-23 03:00 10.90419 119.30594 24629 ft 434 kts 205°
2026-04-23 03:01 10.87668 119.29324 24019 ft 431 kts 205°
2026-04-23 03:01 10.84892 119.28043 23416 ft 427 kts 205°
2026-04-23 03:01 10.82157 119.26783 22815 ft 424 kts 205°
2026-04-23 03:01 10.79474 119.25546 22170 ft 422 kts 205°
2026-04-23 03:02 10.76800 119.24313 21621 ft 418 kts 205°
2026-04-23 03:02 10.74158 119.23096 21113 ft 413 kts 205°
2026-04-23 03:02 10.71530 119.21883 20620 ft 408 kts 205°
2026-04-23 03:02 10.68920 119.20680 20132 ft 403 kts 206°
2026-04-23 03:03 10.66380 119.19509 19658 ft 398 kts 206°
2026-04-23 03:03 10.63846 119.18340 19183 ft 394 kts 206°
2026-04-23 03:03 10.61360 119.17194 18717 ft 389 kts 206°
2026-04-23 03:03 10.58861 119.16042 18246 ft 385 kts 206°
2026-04-23 03:04 10.56450 119.14932 17792 ft 381 kts 206°
2026-04-23 03:04 10.54007 119.13805 17327 ft 378 kts 206°
2026-04-23 03:04 10.51632 119.12711 16874 ft 374 kts 206°
2026-04-23 03:04 10.49253 119.11615 16418 ft 371 kts 206°
2026-04-23 03:05 10.46903 119.10532 15969 ft 368 kts 206°
2026-04-23 03:05 10.44597 119.09470 15518 ft 365 kts 206°
2026-04-23 03:05 10.42305 119.08415 15069 ft 362 kts 206°
2026-04-23 03:05 10.40033 119.07368 14622 ft 359 kts 206°
2026-04-23 03:06 10.37764 119.06325 14177 ft 356 kts 206°
2026-04-23 03:06 10.35564 119.05233 13740 ft 352 kts 210°
2026-04-23 03:06 10.33462 119.03949 13304 ft 348 kts 215°
2026-04-23 03:06 10.31498 119.02529 12875 ft 344 kts 218°
2026-04-23 03:07 10.29582 119.01089 12444 ft 341 kts 218°
2026-04-23 03:07 10.27679 118.99651 12017 ft 337 kts 218°
2026-04-23 03:07 10.25809 118.98241 11605 ft 334 kts 217°
2026-04-23 03:07 10.23951 118.96842 11198 ft 330 kts 217°
2026-04-23 03:08 10.22127 118.95471 10792 ft 326 kts 217°
2026-04-23 03:08 10.20324 118.94118 10415 ft 321 kts 217°
2026-04-23 03:08 10.18557 118.92793 10292 ft 307 kts 217°
2026-04-23 03:08 10.16886 118.91541 10173 ft 294 kts 217°
2026-04-23 03:09 10.15274 118.90346 10042 ft 283 kts 213°
2026-04-23 03:09 10.13485 118.89609 9698 ft 281 kts 188°
2026-04-23 03:09 10.11543 118.89755 9315 ft 281 kts 167°
2026-04-23 03:09 10.09692 118.90304 8974 ft 279 kts 164°
2026-04-23 03:10 10.07849 118.90880 8632 ft 276 kts 164°
2026-04-23 03:10 10.06030 118.91440 8295 ft 273 kts 165°
2026-04-23 03:10 10.04199 118.91995 7956 ft 271 kts 165°
2026-04-23 03:10 10.02423 118.92527 7626 ft 268 kts 165°
2026-04-23 03:11 10.00640 118.93059 7293 ft 266 kts 165°
2026-04-23 03:11 9.98873 118.93584 6962 ft 264 kts 164°
2026-04-23 03:11 9.97127 118.94103 6633 ft 262 kts 164°
2026-04-23 03:11 9.95399 118.94619 6304 ft 260 kts 164°
2026-04-23 03:12 9.93672 118.95133 5972 ft 258 kts 164°
2026-04-23 03:12 9.91949 118.95646 5639 ft 256 kts 163°
2026-04-23 03:12 9.90245 118.96153 5308 ft 255 kts 163°
2026-04-23 03:12 9.88538 118.96661 5041 ft 260 kts 163°
2026-04-23 03:13 9.86786 118.97183 4820 ft 265 kts 163°
2026-04-23 03:13 9.85020 118.97710 4365 ft 267 kts 163°
2026-04-23 03:13 9.83243 118.98238 3972 ft 266 kts 163°
2026-04-23 03:13 9.81436 118.98552 3713 ft 262 kts 177°
2026-04-23 03:14 9.79627 118.98419 3522 ft 258 kts 187°
2026-04-23 03:14 9.77900 118.98125 3347 ft 250 kts 188°
2026-04-23 03:14 9.76203 118.97811 3167 ft 243 kts 190°
2026-04-23 03:14 9.74712 118.97118 3011 ft 237 kts 220°
2026-04-23 03:15 9.73796 118.95773 2947 ft 228 kts 247°
2026-04-23 03:15 9.73460 118.94252 2972 ft 215 kts 263°
2026-04-23 03:15 9.73440 118.92813 2979 ft 193 kts 270°
2026-04-23 03:15 9.73512 118.91534 2849 ft 173 kts 272°
2026-04-23 03:16 9.73588 118.90331 2629 ft 169 kts 271°
2026-04-23 03:16 9.73634 118.89473 2461 ft 168 kts 271°
2026-04-23 03:16 9.73737 118.87097 2003 ft 168 kts 271°
2026-04-23 03:17 9.73785 118.85915 1778 ft 167 kts 271°
2026-04-23 03:17 9.73833 118.84730 1555 ft 167 kts 271°
2026-04-23 03:17 9.73882 118.83572 1339 ft 167 kts 271°
2026-04-23 03:17 9.73932 118.82395 1120 ft 166 kts 272°
2026-04-23 03:18 9.73982 118.81222 902 ft 166 kts 272°
2026-04-23 03:18 9.74038 118.80056 867 ft 166 kts 276°
2026-04-23 03:18 9.74486 118.78991 857 ft 165 kts 311°
2026-04-23 03:18 9.75278 118.78163 868 ft 164 kts 320°
2026-04-23 03:19 9.76124 118.77393 868 ft 164 kts 321°
2026-04-23 03:19 9.76934 118.76578 859 ft 165 kts 303°
2026-04-23 03:19 9.77278 118.75487 862 ft 166 kts 278°
2026-04-23 03:19 9.77373 118.74323 859 ft 164 kts 265°
2026-04-23 03:20 9.76994 118.73278 743 ft 155 kts 227°
2026-04-23 03:20 9.76136 118.72710 625 ft 147 kts 188°
2026-04-23 03:20 9.75152 118.72808 567 ft 144 kts 152°
2026-04-23 03:20 9.74393 118.73450 463 ft 144 kts 118°
2026-04-23 03:21 9.74249 118.74439 247 ft 145 kts 87°
2026-04-23 03:21 9.74222 118.75420 80 ft 128 kts 92°
2026-04-23 03:21 9.74198 118.76088 77 ft 52 kts 92°
2026-04-23 03:21 9.74190 118.76293 77 ft 19 kts 92°
2026-04-23 03:22 9.74185 118.76399 77 ft 9 kts 92°
2026-04-23 03:22 9.74191 118.76442 77 ft 4 kts 64°
2026-04-23 03:22 9.74194 118.76463 77 ft 1 kts 123°
2026-04-23 03:22 9.74184 118.76461 77 ft 2 kts 224°
2026-04-23 03:23 9.74182 118.76442 77 ft 3 kts 275°
2026-04-23 03:23 9.74184 118.76409 77 ft 6 kts 274°
2026-04-23 03:23 9.74187 118.76357 77 ft 8 kts 272°
2026-04-23 03:23 9.74189 118.76295 77 ft 9 kts 272°
2026-04-23 03:24 9.74192 118.76228 77 ft 9 kts 272°
2026-04-23 03:24 9.74195 118.76157 77 ft 10 kts 272°
2026-04-23 03:24 9.74198 118.76083 77 ft 10 kts 272°
2026-04-23 03:24 9.74202 118.76007 77 ft 11 kts 273°
2026-04-23 03:25 9.74206 118.75922 77 ft 13 kts 273°
2026-04-23 03:25 9.74210 118.75835 77 ft 14 kts 272°
2026-04-23 03:25 9.74214 118.75738 77 ft 14 kts 272°
2026-04-23 03:25 9.74218 118.75629 77 ft 14 kts 272°
2026-04-23 03:26 9.74223 118.75530 77 ft 14 kts 273°
2026-04-23 03:26 9.74227 118.75428 77 ft 14 kts 272°
2026-04-23 03:26 9.74231 118.75330 77 ft 11 kts 272°
2026-04-23 03:26 9.74250 118.75266 77 ft 9 kts 318°
2026-04-23 03:27 9.74317 118.75253 77 ft 10 kts
2026-04-23 03:27 9.74380 118.75253 77 ft 7 kts 343°
2026-04-23 03:27 9.74406 118.75207 77 ft 8 kts 273°
2026-04-23 03:27 9.74409 118.75145 77 ft 9 kts 272°
2026-04-23 03:28 9.74411 118.75094 77 ft 6 kts 273°
2026-04-23 03:28 9.74433 118.75063 77 ft 5 kts 347°
2026-04-23 03:28 9.74470 118.75063 77 ft 4 kts
2026-04-23 03:28 9.74501 118.75063 77 ft 2 kts
2026-04-23 03:29 9.74505 118.75064 77 ft 0 kts